Location: Fontevrault
(47.1823°N, 0.0493°E)
Time: 10:18:58
(UTC+00:00)

Cosmos 1908 - Pass Details

Date: 16 June 2021
Orbit: 509 x 530 km, 82.5° (Epoch: 27 July)

Event Time Altitude Azimuth Distance (km) Brightness Sun altitude
Rises 20:45:32 0° 359° (N) 2,676 7.6 -6.9°
Reaches altitude 10° 20:47:54 10° 11° (N) 1,778 6.4 -7.2°
Maximum altitude 20:51:21 29° 73° (ENE) 974 4.4 -7.6°
Enters shadow 20:54:42 10° 135° (SE) 1,729 5.2 -8.0°
